Regional Weather Roundup
Issued by NWS

Home | Current Version | Previous Version | Text Only | Print | Product List | Glossary On
Versions: 1 2 3 4 5 6 7 8 9 10 11 12 13 14 15 16 17 18 19 20 21 22 23 24 25 26 27 28 29 30 31 32 33 34 35 36 37 38 39 40 41 42 43 44 45 46 47 48 49 50
000
ASUS43 KDTX 211910
RWRMI
MICHIGAN HOURLY REGIONAL WEATHER ROUNDUP
NATIONAL WEATHER SERVICE DETROIT/PONTIAC MI
300 PM EDT TUE OCT 21 2014

NOTE: "FAIR" INDICATES FEW OR NO CLOUDS BELOW 12,000 FEET WITH NO
SIGNIFICANT WEATHER AND/OR OBSTRUCTION TO VISIBILITY.

MIZ047>049-052>055-059>063-066>070-074>076-081>083-212000-
SOUTHEAST LOWER MICHIGAN

CITY           SKY/WX    TMP DP  RH WIND       PRES   REMARKS
ADRIAN         CLOUDY    47  38  71 N16G22    30.09R
ALMA           CLOUDY    47  35  62 N9        30.14S
ANN ARBOR      CLOUDY    47  37  68 N16G22    30.08R
BAD AXE        CLOUDY    43  38  84 N15G25    30.10S
CARO           CLOUDY    44  38  79 N7G17     30.11R
DETROIT CITY   CLOUDY    49  38  65 N13G20    30.06R
DETROIT        CLOUDY    47  38  71 N13G24    30.07R
FLINT          CLOUDY    46  37  71 N16G26    30.12R
GROSSE ILE     CLOUDY    48  39  71 N20G25    30.05R
HILLSDALE      CLOUDY    48  40  75 N9        30.09R
HOWELL         CLOUDY    44  37  77 N9G18     30.10R

CITY           SKY/WX    TMP DP  RH WIND       PRES   REMARKS
JACKSON        CLOUDY    47  39  74 N6        30.10R
LAMBERTVILLE   CLOUDY    48  37  66 N10       30.08R
LANSING        CLOUDY    47  35  63 N10       30.13S
LAPEER         CLOUDY    44  38  79 N12G20    30.09R
MASON          CLOUDY    45  37  74 N12G18    30.11S
MONROE         CLOUDY    48  39  71 NW13G18   30.05S
MT. CLEMENS    CLOUDY    46  41  83 N17G31    30.03R
PONTIAC        CLOUDY    44  37  76 N16       30.06R
PORT HOPE        N/A     46  38  73 N21G32    30.09R
PORT HURON     CLOUDY    45  41  87 NW16G23   30.04R
TRI CITIES     LGT RAIN  48  34  58 N17       30.14S
TROY           CLOUDY    47  38  71 N15G21    30.08R
SAGINAW HB     CLOUDY    46  36  66 N9        30.12S
$$
MIZ043>046-050>051-056>058-064>065-071>073-077>080-212000-
SOUTHWEST LOWER MICHIGAN

CITY           SKY/WX    TMP DP  RH WIND       PRES   REMARKS
BATTLE CREEK   CLOUDY    49  38  65 N14G21    30.12S
BENTON HARBOR  CLOUDY    49  40  71 N7        30.14R
BIG RAPIDS     PTSUNNY   48  39  71 N10       30.14S
COLDWATER      CLOUDY    49  39  66 N12G17    30.10S
FREMONT        CLOUDY    50  33  51 N10       30.15F
HOLLAND        CLOUDY    51  38  60 VRB6      30.16R
GRAND RAPIDS   CLOUDY    49  38  65 N12       30.15R
IONIA          CLOUDY    47  38  70 N8        30.13S
KALAMAZOO      CLOUDY    49  38  65 N13       30.13R
LUDINGTON      SUNNY     51  39  64 N14       30.17S
MARSHALL       CLOUDY    47  36  67 N6        30.11R
MOUNT PLEASANT PTSUNNY   50  34  54 N7        30.13F
MUSKEGON       PTSUNNY   52  36  54 NE12      30.16F
SOUTH HAVEN    CLOUDY    50  41  71 NE9       30.15R
$$
MIZ016>042-212000-
NORTHERN LOWER MICHIGAN

CITY           SKY/WX    TMP DP  RH WIND       PRES   REMARKS
ALPENA         MOSUNNY   46  32  58 N15       30.17S
BEAVER ISLAND  SUNNY     48  32  54 NE10      30.22S
BELLAIRE       SUNNY     50  30  45 N7        30.19R
CADILLAC       MOSUNNY   49  36  60 NW8       30.14S
CHARLEVOIX     SUNNY     46  35  63 N12G17    30.23S
FRANKFORT      SUNNY     50  35  55 N12G17    30.19S
GAYLORD        SUNNY     46  29  51 N8        30.16S
GRAYLING       SUNNY     50  28  42 N10       30.16R
HARBOR SPRINGS SUNNY     49  29  45 NE9       30.19S
HOUGHTON LAKE  SUNNY     50  29  44 N10       30.14S
MANISTEE       SUNNY     50  36  57 NW17      30.18S
OSCODA         CLOUDY    45  34  65 N17G23    30.14R
PELLSTON       SUNNY     47  28  47 N7        30.21S
ROGERS CITY    MOSUNNY   45  32  61 VRB10     30.20F
TRAVERSE CITY  MOSUNNY   49  35  58 N10       30.18R
$$
MIZ007>008-015-212000-
EASTERN UPPER MICHIGAN

CITY           SKY/WX    TMP DP  RH WIND       PRES   REMARKS
KINROSS        SUNNY     46  28  49 N8        30.20F
MACKINAC ISLAN SUNNY     47  28  48 N9        30.20S
NEWBERRY       SUNNY     45  33  62 N8G22     30.21F
S. S. MARIE    SUNNY     47  28  47 VRB6      30.21F
MUNISING         N/A     44  34  67 NE15      30.25F
$$
MIZ004>006-011>014-085-212000-
CENTRAL UPPER MICHIGAN

CITY           SKY/WX    TMP DP  RH WIND       PRES   REMARKS
MANISTIQUE     SUNNY     50  32  49 N13G18    30.21F
ESCANABA       SUNNY     50  27  40 NE10G17   30.22S
MENOMINEE      SUNNY     48  36  61 E12       30.22F
SAWYER-GWINN   SUNNY     41  32  70 NE13      30.25S
$$
MIZ001>003-009>011-084-212000-
WESTERN UPPER MICHIGAN

CITY           SKY/WX    TMP DP  RH WIND       PRES   REMARKS
IRON MOUNTAIN  SUNNY     49  31  49 VRB7      30.22F
HOUGHTON       SUNNY     45  29  53 E5        30.26S
COPPER HARBOR    N/A     43  33  68 E9        30.29R
IRONWOOD       MOSUNNY   43  34  70 E6        30.23S
$$

ABBREVIATIONS USED IN REMARKS
   TC - TEMPERATURE IN CELSIUS
  WCI - WIND CHILL INDEX
   HX - HEAT INDEX
  VSB - VISIBILITY




USA.gov is the U.S. government's official web portal to all federal, state and local government web resources and services.